Year,Month,Day,Hour,Minute,Value (Times are PST for insolation in W/m^2)
2014,04,27,00,00,0.00
2014,04,27,00,01,0.00
2014,04,27,00,02,0.00
2014,04,27,00,03,0.00
2014,04,27,00,04,0.00
2014,04,27,00,05,0.00
2014,04,27,00,06,0.00
2014,04,27,00,07,0.00
2014,04,27,00,08,0.00
2014,04,27,00,09,0.00
2014,04,27,00,10,0.00
2014,04,27,00,11,0.00
2014,04,27,00,12,0.00
2014,04,27,00,13,0.00
2014,04,27,00,14,0.00
2014,04,27,00,15,0.00
2014,04,27,00,16,0.00
2014,04,27,00,17,0.00
2014,04,27,00,18,0.00
2014,04,27,00,19,0.00
2014,04,27,00,20,0.00
2014,04,27,00,21,0.00
2014,04,27,00,22,0.00
2014,04,27,00,23,0.00
2014,04,27,00,24,0.00
2014,04,27,00,25,0.00
2014,04,27,00,26,0.00
2014,04,27,00,27,0.00
2014,04,27,00,28,0.00
2014,04,27,00,29,0.00
2014,04,27,00,30,0.00
2014,04,27,00,31,0.00
2014,04,27,00,32,0.00
2014,04,27,00,33,0.00
2014,04,27,00,34,0.00
2014,04,27,00,35,0.00
2014,04,27,00,36,0.00
2014,04,27,00,37,0.00
2014,04,27,00,38,0.00
2014,04,27,00,39,0.00
2014,04,27,00,40,0.00
2014,04,27,00,41,0.00
2014,04,27,00,42,0.00
2014,04,27,00,43,0.00
2014,04,27,00,44,0.00
2014,04,27,00,45,0.00
2014,04,27,00,46,0.00
2014,04,27,00,47,0.00
2014,04,27,00,48,0.00
2014,04,27,00,49,0.00
2014,04,27,00,50,0.00
2014,04,27,00,51,0.00
2014,04,27,00,52,0.00
2014,04,27,00,53,0.00
2014,04,27,00,54,0.00
2014,04,27,00,55,0.00
2014,04,27,00,56,0.00
2014,04,27,00,57,0.00
2014,04,27,00,58,0.00
2014,04,27,00,59,0.00
2014,04,27,01,00,0.00
2014,04,27,01,01,0.00
2014,04,27,01,02,0.00
2014,04,27,01,03,0.00
2014,04,27,01,04,0.00
2014,04,27,01,05,0.00
2014,04,27,01,06,0.00
2014,04,27,01,07,0.00
2014,04,27,01,08,0.00
2014,04,27,01,09,0.00
2014,04,27,01,10,0.00
2014,04,27,01,11,0.00
2014,04,27,01,12,0.00
2014,04,27,01,13,0.00
2014,04,27,01,14,0.00
2014,04,27,01,15,0.00
2014,04,27,01,16,0.00
2014,04,27,01,17,0.00
2014,04,27,01,18,0.00
2014,04,27,01,19,0.00
2014,04,27,01,20,0.00
2014,04,27,01,21,0.00
2014,04,27,01,22,0.00
2014,04,27,01,23,0.00
2014,04,27,01,24,0.00
2014,04,27,01,25,0.00
2014,04,27,01,26,0.00
2014,04,27,01,27,0.00
2014,04,27,01,28,0.00
2014,04,27,01,29,0.00
2014,04,27,01,30,0.00
2014,04,27,01,31,0.00
2014,04,27,01,32,0.00
2014,04,27,01,33,0.00
2014,04,27,01,34,0.00
2014,04,27,01,35,0.00
2014,04,27,01,36,0.00
2014,04,27,01,37,0.00
2014,04,27,01,38,0.00
2014,04,27,01,39,0.00
2014,04,27,01,40,0.00
2014,04,27,01,41,0.00
2014,04,27,01,42,0.00
2014,04,27,01,43,0.00
2014,04,27,01,44,0.00
2014,04,27,01,45,0.00
2014,04,27,01,46,0.00
2014,04,27,01,47,0.00
2014,04,27,01,48,0.00
2014,04,27,01,49,0.00
2014,04,27,01,50,0.00
2014,04,27,01,51,0.00
2014,04,27,01,52,0.00
2014,04,27,01,53,0.00
2014,04,27,01,54,0.00
2014,04,27,01,55,0.00
2014,04,27,01,56,0.00
2014,04,27,01,57,0.00
2014,04,27,01,58,0.00
2014,04,27,01,59,0.00
2014,04,27,02,00,0.00
2014,04,27,02,01,0.00
2014,04,27,02,02,0.00
2014,04,27,02,03,0.00
2014,04,27,02,04,0.00
2014,04,27,02,05,0.00
2014,04,27,02,06,0.00
2014,04,27,02,07,0.00
2014,04,27,02,08,0.00
2014,04,27,02,09,0.00
2014,04,27,02,10,0.00
2014,04,27,02,11,0.00
2014,04,27,02,12,0.00
2014,04,27,02,13,0.00
2014,04,27,02,14,0.00
2014,04,27,02,15,0.00
2014,04,27,02,16,0.00
2014,04,27,02,17,0.00
2014,04,27,02,18,0.00
2014,04,27,02,19,0.00
2014,04,27,02,20,0.00
2014,04,27,02,21,0.00
2014,04,27,02,22,0.00
2014,04,27,02,23,0.00
2014,04,27,02,24,0.00
2014,04,27,02,25,0.00
2014,04,27,02,26,0.00
2014,04,27,02,27,0.00
2014,04,27,02,28,0.00
2014,04,27,02,29,0.00
2014,04,27,02,30,0.00
2014,04,27,02,31,0.00
2014,04,27,02,32,0.00
2014,04,27,02,33,0.00
2014,04,27,02,34,0.00
2014,04,27,02,35,0.00
2014,04,27,02,36,0.00
2014,04,27,02,37,0.00
2014,04,27,02,38,0.00
2014,04,27,02,39,0.00
2014,04,27,02,40,0.00
2014,04,27,02,41,0.00
2014,04,27,02,42,0.00
2014,04,27,02,43,0.00
2014,04,27,02,44,0.00
2014,04,27,02,45,0.00
2014,04,27,02,46,0.00
2014,04,27,02,47,0.00
2014,04,27,02,48,0.00
2014,04,27,02,49,0.00
2014,04,27,02,50,0.00
2014,04,27,02,51,0.00
2014,04,27,02,52,0.00
2014,04,27,02,53,0.00
2014,04,27,02,54,0.00
2014,04,27,02,55,0.00
2014,04,27,02,56,0.00
2014,04,27,02,57,0.00
2014,04,27,02,58,0.00
2014,04,27,02,59,0.00
2014,04,27,03,00,0.00
2014,04,27,03,01,0.00
2014,04,27,03,02,0.00
2014,04,27,03,03,0.00
2014,04,27,03,04,0.00
2014,04,27,03,05,0.00
2014,04,27,03,06,0.00
2014,04,27,03,07,0.00
2014,04,27,03,08,0.00
2014,04,27,03,09,0.00
2014,04,27,03,10,0.00
2014,04,27,03,11,0.00
2014,04,27,03,12,0.00
2014,04,27,03,13,0.00
2014,04,27,03,14,0.00
2014,04,27,03,15,0.00
2014,04,27,03,16,0.00
2014,04,27,03,17,0.00
2014,04,27,03,18,0.00
2014,04,27,03,19,0.00
2014,04,27,03,20,0.00
2014,04,27,03,21,0.00
2014,04,27,03,22,0.00
2014,04,27,03,23,0.00
2014,04,27,03,24,0.00
2014,04,27,03,25,0.00
2014,04,27,03,26,0.00
2014,04,27,03,27,0.00
2014,04,27,03,28,0.00
2014,04,27,03,29,0.00
2014,04,27,03,30,0.00
2014,04,27,03,31,0.00
2014,04,27,03,32,0.00
2014,04,27,03,33,0.00
2014,04,27,03,34,0.00
2014,04,27,03,35,0.00
2014,04,27,03,36,0.00
2014,04,27,03,37,0.00
2014,04,27,03,38,0.00
2014,04,27,03,39,0.00
2014,04,27,03,40,0.00
2014,04,27,03,41,0.00
2014,04,27,03,42,0.00
2014,04,27,03,43,0.00
2014,04,27,03,44,0.00
2014,04,27,03,45,0.00
2014,04,27,03,46,0.00
2014,04,27,03,47,0.00
2014,04,27,03,48,0.00
2014,04,27,03,49,0.00
2014,04,27,03,50,0.00
2014,04,27,03,51,0.00
2014,04,27,03,52,0.00
2014,04,27,03,53,0.00
2014,04,27,03,54,0.00
2014,04,27,03,55,0.00
2014,04,27,03,56,0.00
2014,04,27,03,57,0.00
2014,04,27,03,58,0.00
2014,04,27,03,59,0.00
2014,04,27,04,00,0.00
2014,04,27,04,01,0.00
2014,04,27,04,02,0.00
2014,04,27,04,03,0.00
2014,04,27,04,04,0.00
2014,04,27,04,05,0.00
2014,04,27,04,06,0.00
2014,04,27,04,07,0.00
2014,04,27,04,08,0.00
2014,04,27,04,09,0.00
2014,04,27,04,10,0.00
2014,04,27,04,11,0.00
2014,04,27,04,12,0.00
2014,04,27,04,13,0.00
2014,04,27,04,14,0.00
2014,04,27,04,15,0.00
2014,04,27,04,16,0.00
2014,04,27,04,17,0.00
2014,04,27,04,18,0.00
2014,04,27,04,19,0.00
2014,04,27,04,20,0.00
2014,04,27,04,21,0.00
2014,04,27,04,22,0.00
2014,04,27,04,23,0.00
2014,04,27,04,24,0.00
2014,04,27,04,25,0.00
2014,04,27,04,26,0.00
2014,04,27,04,27,0.00
2014,04,27,04,28,0.00
2014,04,27,04,29,0.00
2014,04,27,04,30,0.00
2014,04,27,04,31,0.00
2014,04,27,04,32,0.00
2014,04,27,04,33,0.00
2014,04,27,04,34,0.00
2014,04,27,04,35,0.00
2014,04,27,04,36,0.00
2014,04,27,04,37,0.00
2014,04,27,04,38,0.00
2014,04,27,04,39,0.00
2014,04,27,04,40,0.00
2014,04,27,04,41,0.00
2014,04,27,04,42,0.00
2014,04,27,04,43,0.00
2014,04,27,04,44,0.00
2014,04,27,04,45,0.00
2014,04,27,04,46,0.00
2014,04,27,04,47,0.00
2014,04,27,04,48,0.00
2014,04,27,04,49,0.00
2014,04,27,04,50,0.00
2014,04,27,04,51,0.00
2014,04,27,04,52,0.00
2014,04,27,04,53,0.00
2014,04,27,04,54,0.00
2014,04,27,04,55,0.00
2014,04,27,04,56,0.00
2014,04,27,04,57,0.00
2014,04,27,04,58,0.00
2014,04,27,04,59,0.00
2014,04,27,05,00,0.00
2014,04,27,05,01,0.00
2014,04,27,05,02,0.00
2014,04,27,05,03,0.00
2014,04,27,05,04,0.00
2014,04,27,05,05,0.00
2014,04,27,05,06,0.00
2014,04,27,05,07,0.00
2014,04,27,05,08,0.00
2014,04,27,05,09,0.00
2014,04,27,05,10,0.00
2014,04,27,05,11,0.00
2014,04,27,05,12,0.00
2014,04,27,05,13,0.00
2014,04,27,05,14,0.00
2014,04,27,05,15,0.00
2014,04,27,05,16,0.00
2014,04,27,05,17,0.00
2014,04,27,05,18,0.00
2014,04,27,05,19,0.00
2014,04,27,05,20,0.00
2014,04,27,05,21,0.00
2014,04,27,05,22,0.00
2014,04,27,05,23,0.00
2014,04,27,05,24,0.00
2014,04,27,05,25,0.00
2014,04,27,05,26,0.00
2014,04,27,05,27,0.00
2014,04,27,05,28,0.00
2014,04,27,05,29,0.00
2014,04,27,05,30,0.00
2014,04,27,05,31,0.00
2014,04,27,05,32,0.00
2014,04,27,05,33,0.00
2014,04,27,05,34,0.00
2014,04,27,05,35,0.00
2014,04,27,05,36,0.00
2014,04,27,05,37,0.00
2014,04,27,05,38,0.00
2014,04,27,05,39,0.00
2014,04,27,05,40,0.00
2014,04,27,05,41,0.00
2014,04,27,05,42,0.00
2014,04,27,05,43,0.00
2014,04,27,05,44,0.00
2014,04,27,05,45,0.00
2014,04,27,05,46,0.00
2014,04,27,05,47,0.00
2014,04,27,05,48,0.00
2014,04,27,05,49,0.00
2014,04,27,05,50,0.00
2014,04,27,05,51,0.00
2014,04,27,05,52,0.00
2014,04,27,05,53,0.00
2014,04,27,05,54,0.00
2014,04,27,05,55,0.00
2014,04,27,05,56,0.00
2014,04,27,05,57,0.00
2014,04,27,05,58,0.00
2014,04,27,05,59,0.00
2014,04,27,06,00,0.00
2014,04,27,06,01,0.00
2014,04,27,06,02,0.00
2014,04,27,06,03,0.00
2014,04,27,06,04,0.00
2014,04,27,06,05,0.00
2014,04,27,06,06,0.00
2014,04,27,06,07,4.50
2014,04,27,06,08,5.00
2014,04,27,06,09,5.20
2014,04,27,06,10,7.00
2014,04,27,06,11,7.00
2014,04,27,06,12,7.50
2014,04,27,06,13,9.00
2014,04,27,06,14,9.00
2014,04,27,06,15,10.00
2014,04,27,06,16,11.00
2014,04,27,06,17,11.60
2014,04,27,06,18,12.00
2014,04,27,06,19,12.00
2014,04,27,06,20,13.50
2014,04,27,06,21,14.00
2014,04,27,06,22,15.80
2014,04,27,06,23,16.10
2014,04,27,06,24,18.00
2014,04,27,06,25,18.10
2014,04,27,06,26,19.00
2014,04,27,06,27,19.60
2014,04,27,06,28,21.00
2014,04,27,06,29,21.00
2014,04,27,06,30,21.00
2014,04,27,06,31,22.10
2014,04,27,06,32,23.00
2014,04,27,06,33,23.00
2014,04,27,06,34,24.40
2014,04,27,06,35,25.00
2014,04,27,06,36,25.80
2014,04,27,06,37,26.00
2014,04,27,06,38,26.00
2014,04,27,06,39,26.20
2014,04,27,06,40,28.00
2014,04,27,06,41,28.50
2014,04,27,06,42,30.00
2014,04,27,06,43,30.00
2014,04,27,06,44,30.80
2014,04,27,06,45,32.00
2014,04,27,06,46,32.50
2014,04,27,06,47,33.00
2014,04,27,06,48,34.30
2014,04,27,06,49,36.40
2014,04,27,06,50,37.00
2014,04,27,06,51,38.70
2014,04,27,06,52,39.90
2014,04,27,06,53,40.10
2014,04,27,06,54,42.00
2014,04,27,06,55,42.60
2014,04,27,06,56,46.20
2014,04,27,06,57,48.10
2014,04,27,06,58,51.70
2014,04,27,06,59,54.10
2014,04,27,07,00,56.90
2014,04,27,07,01,59.00
2014,04,27,07,02,61.20
2014,04,27,07,03,62.00
2014,04,27,07,04,62.70
2014,04,27,07,05,63.00
2014,04,27,07,06,64.70
2014,04,27,07,07,66.80
2014,04,27,07,08,67.00
2014,04,27,07,09,67.30
2014,04,27,07,10,71.30
2014,04,27,07,11,79.00
2014,04,27,07,12,76.50
2014,04,27,07,13,70.00
2014,04,27,07,14,70.00
2014,04,27,07,15,71.00
2014,04,27,07,16,73.00
2014,04,27,07,17,74.00
2014,04,27,07,18,75.90
2014,04,27,07,19,78.40
2014,04,27,07,20,79.00
2014,04,27,07,21,77.40
2014,04,27,07,22,78.80
2014,04,27,07,23,81.00
2014,04,27,07,24,83.10
2014,04,27,07,25,84.30
2014,04,27,07,26,86.50
2014,04,27,07,27,88.60
2014,04,27,07,28,91.00
2014,04,27,07,29,93.80
2014,04,27,07,30,96.40
2014,04,27,07,31,100.10
2014,04,27,07,32,103.20
2014,04,27,07,33,106.00
2014,04,27,07,34,108.40
2014,04,27,07,35,109.00
2014,04,27,07,36,110.60
2014,04,27,07,37,111.00
2014,04,27,07,38,111.00
2014,04,27,07,39,111.20
2014,04,27,07,40,113.10
2014,04,27,07,41,114.50
2014,04,27,07,42,116.00
2014,04,27,07,43,116.00
2014,04,27,07,44,116.80
2014,04,27,07,45,119.00
2014,04,27,07,46,119.00
2014,04,27,07,47,123.30
2014,04,27,07,48,124.30
2014,04,27,07,49,120.90
2014,04,27,07,50,120.80
2014,04,27,07,51,122.70
2014,04,27,07,52,123.00
2014,04,27,07,53,123.00
2014,04,27,07,54,125.30
2014,04,27,07,55,129.60
2014,04,27,07,56,136.30
2014,04,27,07,57,125.30
2014,04,27,07,58,121.00
2014,04,27,07,59,121.00
2014,04,27,08,00,121.00
2014,04,27,08,01,120.50
2014,04,27,08,02,116.50
2014,04,27,08,03,113.30
2014,04,27,08,04,113.70
2014,04,27,08,05,114.00
2014,04,27,08,06,114.00
2014,04,27,08,07,115.80
2014,04,27,08,08,118.00
2014,04,27,08,09,120.50
2014,04,27,08,10,125.40
2014,04,27,08,11,128.90
2014,04,27,08,12,134.00
2014,04,27,08,13,140.70
2014,04,27,08,14,146.70
2014,04,27,08,15,154.20
2014,04,27,08,16,160.60
2014,04,27,08,17,168.10
2014,04,27,08,18,179.00
2014,04,27,08,19,189.40
2014,04,27,08,20,208.80
2014,04,27,08,21,228.70
2014,04,27,08,22,263.70
2014,04,27,08,23,319.20
2014,04,27,08,24,321.00
2014,04,27,08,25,377.40
2014,04,27,08,26,368.70
2014,04,27,08,27,338.90
2014,04,27,08,28,314.00
2014,04,27,08,29,292.60
2014,04,27,08,30,284.20
2014,04,27,08,31,269.00
2014,04,27,08,32,239.40
2014,04,27,08,33,236.70
2014,04,27,08,34,247.60
2014,04,27,08,35,267.20
2014,04,27,08,36,279.70
2014,04,27,08,37,249.30
2014,04,27,08,38,221.30
2014,04,27,08,39,210.40
2014,04,27,08,40,204.30
2014,04,27,08,41,206.70
2014,04,27,08,42,210.40
2014,04,27,08,43,217.00
2014,04,27,08,44,226.60
2014,04,27,08,45,237.00
2014,04,27,08,46,246.70
2014,04,27,08,47,251.80
2014,04,27,08,48,259.00
2014,04,27,08,49,268.40
2014,04,27,08,50,280.60
2014,04,27,08,51,324.70
2014,04,27,08,52,334.00
2014,04,27,08,53,537.80
2014,04,27,08,54,526.60
2014,04,27,08,55,326.60
2014,04,27,08,56,408.00
2014,04,27,08,57,377.70
2014,04,27,08,58,288.30
2014,04,27,08,59,268.50
2014,04,27,09,00,265.00
2014,04,27,09,01,269.70
2014,04,27,09,02,269.90
2014,04,27,09,03,299.70
2014,04,27,09,04,295.30
2014,04,27,09,05,263.00
2014,04,27,09,06,255.40
2014,04,27,09,07,242.30
2014,04,27,09,08,236.80
2014,04,27,09,09,229.10
2014,04,27,09,10,230.90
2014,04,27,09,11,237.60
2014,04,27,09,12,247.80
2014,04,27,09,13,260.00
2014,04,27,09,14,261.70
2014,04,27,09,15,255.70
2014,04,27,09,16,253.00
2014,04,27,09,17,255.90
2014,04,27,09,18,259.30
2014,04,27,09,19,257.90
2014,04,27,09,20,260.90
2014,04,27,09,21,275.70
2014,04,27,09,22,284.30
2014,04,27,09,23,285.10
2014,04,27,09,24,286.80
2014,04,27,09,25,286.40
2014,04,27,09,26,297.00
2014,04,27,09,27,301.40
2014,04,27,09,28,299.30
2014,04,27,09,29,309.20
2014,04,27,09,30,312.00
2014,04,27,09,31,334.00
2014,04,27,09,32,374.90
2014,04,27,09,33,402.00
2014,04,27,09,34,428.00
2014,04,27,09,35,407.40
2014,04,27,09,36,365.60
2014,04,27,09,37,357.30
2014,04,27,09,38,414.40
2014,04,27,09,39,499.00
2014,04,27,09,40,475.40
2014,04,27,09,41,336.10
2014,04,27,09,42,351.50
2014,04,27,09,43,375.00
2014,04,27,09,44,387.00
2014,04,27,09,45,374.10
2014,04,27,09,46,380.40
2014,04,27,09,47,363.00
2014,04,27,09,48,332.70
2014,04,27,09,49,334.30
2014,04,27,09,50,331.40
2014,04,27,09,51,318.50
2014,04,27,09,52,307.00
2014,04,27,09,53,306.00
2014,04,27,09,54,309.40
2014,04,27,09,55,314.70
2014,04,27,09,56,329.10
2014,04,27,09,57,340.40
2014,04,27,09,58,338.00
2014,04,27,09,59,351.70
2014,04,27,10,00,378.60
2014,04,27,10,01,430.40
2014,04,27,10,02,437.10
2014,04,27,10,03,467.30
2014,04,27,10,04,506.40
2014,04,27,10,05,576.20
2014,04,27,10,06,596.00
2014,04,27,10,07,430.40
2014,04,27,10,08,413.00
2014,04,27,10,09,443.90
2014,04,27,10,10,737.00
2014,04,27,10,11,737.00
2014,04,27,10,12,729.10
2014,04,27,10,13,708.00
2014,04,27,10,14,600.00
2014,04,27,10,15,408.90
2014,04,27,10,16,374.00
2014,04,27,10,17,373.40
2014,04,27,10,18,373.70
2014,04,27,10,19,375.40
2014,04,27,10,20,377.50
2014,04,27,10,21,380.60
2014,04,27,10,22,389.10
2014,04,27,10,23,381.00
2014,04,27,10,24,370.50
2014,04,27,10,25,370.40
2014,04,27,10,26,385.20
2014,04,27,10,27,330.40
2014,04,27,10,28,294.30
2014,04,27,10,29,297.50
2014,04,27,10,30,301.50
2014,04,27,10,31,305.10
2014,04,27,10,32,308.60
2014,04,27,10,33,313.70
2014,04,27,10,34,287.40
2014,04,27,10,35,281.30
2014,04,27,10,36,274.00
2014,04,27,10,37,259.30
2014,04,27,10,38,299.20
2014,04,27,10,39,286.30
2014,04,27,10,40,304.70
2014,04,27,10,41,351.50
2014,04,27,10,42,421.10
2014,04,27,10,43,479.70
2014,04,27,10,44,474.20
2014,04,27,10,45,454.90
2014,04,27,10,46,397.00
2014,04,27,10,47,387.00
2014,04,27,10,48,387.00
2014,04,27,10,49,393.40
2014,04,27,10,50,396.00
2014,04,27,10,51,541.70
2014,04,27,10,52,513.50
2014,04,27,10,53,504.50
2014,04,27,10,54,434.60
2014,04,27,10,55,470.90
2014,04,27,10,56,472.70
2014,04,27,10,57,415.60
2014,04,27,10,58,350.00
2014,04,27,10,59,355.40
2014,04,27,11,00,369.00
2014,04,27,11,01,369.00
2014,04,27,11,02,373.10
2014,04,27,11,03,383.30
2014,04,27,11,04,387.00
2014,04,27,11,05,498.30
2014,04,27,11,06,531.00
2014,04,27,11,07,369.00
2014,04,27,11,08,362.00
2014,04,27,11,09,573.00
2014,04,27,11,10,539.90
2014,04,27,11,11,333.00
2014,04,27,11,12,307.40
2014,04,27,11,13,334.00
2014,04,27,11,14,380.00
2014,04,27,11,15,380.00
2014,04,27,11,16,414.60
2014,04,27,11,17,485.00
2014,04,27,11,18,512.00
2014,04,27,11,19,512.00
2014,04,27,11,20,460.80
2014,04,27,11,21,422.60
2014,04,27,11,22,405.20
2014,04,27,11,23,384.00
2014,04,27,11,24,383.00
2014,04,27,11,25,381.00
2014,04,27,11,26,363.50
2014,04,27,11,27,343.30
2014,04,27,11,28,341.00
2014,04,27,11,29,345.00
2014,04,27,11,30,323.20
2014,04,27,11,31,297.00
2014,04,27,11,32,316.50
2014,04,27,11,33,306.00
2014,04,27,11,34,294.00
2014,04,27,11,35,305.60
2014,04,27,11,36,322.70
2014,04,27,11,37,368.40
2014,04,27,11,38,373.00
2014,04,27,11,39,401.50
2014,04,27,11,40,446.90
2014,04,27,11,41,456.30
2014,04,27,11,42,471.00
2014,04,27,11,43,424.70
2014,04,27,11,44,332.80
2014,04,27,11,45,328.50
2014,04,27,11,46,310.00
2014,04,27,11,47,289.50
2014,04,27,11,48,283.00
2014,04,27,11,49,286.60
2014,04,27,11,50,287.20
2014,04,27,11,51,293.50
2014,04,27,11,52,317.60
2014,04,27,11,53,325.70
2014,04,27,11,54,346.00
2014,04,27,11,55,346.00
2014,04,27,11,56,386.50
2014,04,27,11,57,524.00
2014,04,27,11,58,524.00
2014,04,27,11,59,485.10
2014,04,27,12,00,392.80
2014,04,27,12,01,369.80
2014,04,27,12,02,385.00
2014,04,27,12,03,481.00
2014,04,27,12,04,529.00
2014,04,27,12,05,737.00
2014,04,27,12,06,789.00
2014,04,27,12,07,474.10
2014,04,27,12,08,441.00
2014,04,27,12,09,282.10
2014,04,27,12,10,251.60
2014,04,27,12,11,246.20
2014,04,27,12,12,278.40
2014,04,27,12,13,334.30
2014,04,27,12,14,339.00
2014,04,27,12,15,339.00
2014,04,27,12,16,342.10
2014,04,27,12,17,349.70
2014,04,27,12,18,368.30
2014,04,27,12,19,382.40
2014,04,27,12,20,371.30
2014,04,27,12,21,334.30
2014,04,27,12,22,297.10
2014,04,27,12,23,270.20
2014,04,27,12,24,255.60
2014,04,27,12,25,266.70
2014,04,27,12,26,301.80
2014,04,27,12,27,328.10
2014,04,27,12,28,341.30
2014,04,27,12,29,348.10
2014,04,27,12,30,378.20
2014,04,27,12,31,408.60
2014,04,27,12,32,408.10
2014,04,27,12,33,402.30
2014,04,27,12,34,389.90
2014,04,27,12,35,401.50
2014,04,27,12,36,483.70
2014,04,27,12,37,505.50
2014,04,27,12,38,547.80
2014,04,27,12,39,550.00
2014,04,27,12,40,652.70
2014,04,27,12,41,1269.00
2014,04,27,12,42,1052.10
2014,04,27,12,43,525.00
2014,04,27,12,44,590.00
2014,04,27,12,45,647.00
2014,04,27,12,46,647.00
2014,04,27,12,47,647.00
2014,04,27,12,48,647.00
2014,04,27,12,49,647.00
2014,04,27,12,50,647.00
2014,04,27,12,51,814.10
2014,04,27,12,52,852.90
2014,04,27,12,53,854.00
2014,04,27,12,54,854.00
2014,04,27,12,55,875.60
2014,04,27,12,56,990.70
2014,04,27,12,57,931.40
2014,04,27,12,58,935.00
2014,04,27,12,59,935.00
2014,04,27,13,00,937.40
2014,04,27,13,01,940.00
2014,04,27,13,02,802.90
2014,04,27,13,03,744.70
2014,04,27,13,04,723.70
2014,04,27,13,05,691.00
2014,04,27,13,06,643.10
2014,04,27,13,07,660.40
2014,04,27,13,08,748.30
2014,04,27,13,09,758.50
2014,04,27,13,10,755.70
2014,04,27,13,11,766.00
2014,04,27,13,12,771.50
2014,04,27,13,13,756.00
2014,04,27,13,14,696.00
2014,04,27,13,15,629.80
2014,04,27,13,16,557.00
2014,04,27,13,17,599.00
2014,04,27,13,18,628.00
2014,04,27,13,19,628.00
2014,04,27,13,20,941.70
2014,04,27,13,21,955.10
2014,04,27,13,22,942.00
2014,04,27,13,23,1091.10
2014,04,27,13,24,1063.50
2014,04,27,13,25,1078.00
2014,04,27,13,26,1026.40
2014,04,27,13,27,851.00
2014,04,27,13,28,722.00
2014,04,27,13,29,459.40
2014,04,27,13,30,439.70
2014,04,27,13,31,416.10
2014,04,27,13,32,408.00
2014,04,27,13,33,408.00
2014,04,27,13,34,393.00
2014,04,27,13,35,371.80
2014,04,27,13,36,349.80
2014,04,27,13,37,299.00
2014,04,27,13,38,258.80
2014,04,27,13,39,238.80
2014,04,27,13,40,238.90
2014,04,27,13,41,251.60
2014,04,27,13,42,256.10
2014,04,27,13,43,244.70
2014,04,27,13,44,223.40
2014,04,27,13,45,200.00
2014,04,27,13,46,179.60
2014,04,27,13,47,166.10
2014,04,27,13,48,162.70
2014,04,27,13,49,162.30
2014,04,27,13,50,158.90
2014,04,27,13,51,153.70
2014,04,27,13,52,148.50
2014,04,27,13,53,144.20
2014,04,27,13,54,146.50
2014,04,27,13,55,152.60
2014,04,27,13,56,165.90
2014,04,27,13,57,184.10
2014,04,27,13,58,206.30
2014,04,27,13,59,237.20
2014,04,27,14,00,272.00
2014,04,27,14,01,311.00
2014,04,27,14,02,330.00
2014,04,27,14,03,330.00
2014,04,27,14,04,330.00
2014,04,27,14,05,963.60
2014,04,27,14,06,1132.90
2014,04,27,14,07,1114.60
2014,04,27,14,08,1086.10
2014,04,27,14,09,1058.90
2014,04,27,14,10,1045.90
2014,04,27,14,11,1020.50
2014,04,27,14,12,988.40
2014,04,27,14,13,974.00
2014,04,27,14,14,970.00
2014,04,27,14,15,970.00
2014,04,27,14,16,933.30
2014,04,27,14,17,878.10
2014,04,27,14,18,887.70
2014,04,27,14,19,938.60
2014,04,27,14,20,967.00
2014,04,27,14,21,991.40
2014,04,27,14,22,1018.50
2014,04,27,14,23,1015.70
2014,04,27,14,24,1008.50
2014,04,27,14,25,1042.00
2014,04,27,14,26,873.10
2014,04,27,14,27,307.60
2014,04,27,14,28,345.30
2014,04,27,14,29,378.00
2014,04,27,14,30,378.00
2014,04,27,14,31,378.00
2014,04,27,14,32,787.50
2014,04,27,14,33,1046.30
2014,04,27,14,34,1041.10
2014,04,27,14,35,1037.10
2014,04,27,14,36,1065.30
2014,04,27,14,37,1072.00
2014,04,27,14,38,1072.00
2014,04,27,14,39,1012.80
2014,04,27,14,40,450.00
2014,04,27,14,41,450.00
2014,04,27,14,42,450.00
2014,04,27,14,43,436.00
2014,04,27,14,44,382.60
2014,04,27,14,45,336.00
2014,04,27,14,46,337.00
2014,04,27,14,47,333.20
2014,04,27,14,48,323.00
2014,04,27,14,49,322.30
2014,04,27,14,50,308.10
2014,04,27,14,51,301.40
2014,04,27,14,52,299.20
2014,04,27,14,53,294.20
2014,04,27,14,54,298.10
2014,04,27,14,55,309.90
2014,04,27,14,56,318.90
2014,04,27,14,57,341.10
2014,04,27,14,58,368.00
2014,04,27,14,59,388.30
2014,04,27,15,00,406.00
2014,04,27,15,01,499.20
2014,04,27,15,02,584.00
2014,04,27,15,03,468.00
2014,04,27,15,04,384.30
2014,04,27,15,05,379.40
2014,04,27,15,06,396.40
2014,04,27,15,07,351.00
2014,04,27,15,08,323.20
2014,04,27,15,09,302.70
2014,04,27,15,10,289.00
2014,04,27,15,11,281.70
2014,04,27,15,12,274.10
2014,04,27,15,13,267.30
2014,04,27,15,14,261.50
2014,04,27,15,15,256.60
2014,04,27,15,16,254.00
2014,04,27,15,17,253.00
2014,04,27,15,18,254.30
2014,04,27,15,19,261.40
2014,04,27,15,20,270.10
2014,04,27,15,21,284.30
2014,04,27,15,22,325.90
2014,04,27,15,23,335.90
2014,04,27,15,24,457.50
2014,04,27,15,25,450.60
2014,04,27,15,26,504.00
2014,04,27,15,27,538.40
2014,04,27,15,28,533.70
2014,04,27,15,29,479.60
2014,04,27,15,30,441.40
2014,04,27,15,31,392.70
2014,04,27,15,32,347.00
2014,04,27,15,33,314.30
2014,04,27,15,34,296.60
2014,04,27,15,35,281.60
2014,04,27,15,36,273.30
2014,04,27,15,37,280.10
2014,04,27,15,38,291.50
2014,04,27,15,39,300.90
2014,04,27,15,40,323.00
2014,04,27,15,41,339.00
2014,04,27,15,42,332.00
2014,04,27,15,43,328.70
2014,04,27,15,44,317.50
2014,04,27,15,45,312.00
2014,04,27,15,46,314.60
2014,04,27,15,47,321.30
2014,04,27,15,48,329.70
2014,04,27,15,49,339.90
2014,04,27,15,50,371.60
2014,04,27,15,51,380.00
2014,04,27,15,52,689.40
2014,04,27,15,53,696.70
2014,04,27,15,54,645.70
2014,04,27,15,55,652.00
2014,04,27,15,56,601.30
2014,04,27,15,57,429.00
2014,04,27,15,58,491.70
2014,04,27,15,59,634.20
2014,04,27,16,00,630.40
2014,04,27,16,01,599.00
2014,04,27,16,02,691.80
2014,04,27,16,03,700.70
2014,04,27,16,04,698.00
2014,04,27,16,05,721.90
2014,04,27,16,06,726.00
2014,04,27,16,07,512.50
2014,04,27,16,08,517.60
2014,04,27,16,09,536.10
2014,04,27,16,10,699.90
2014,04,27,16,11,665.40
2014,04,27,16,12,711.70
2014,04,27,16,13,750.70
2014,04,27,16,14,725.10
2014,04,27,16,15,698.70
2014,04,27,16,16,691.30
2014,04,27,16,17,679.90
2014,04,27,16,18,676.30
2014,04,27,16,19,672.00
2014,04,27,16,20,638.30
2014,04,27,16,21,629.00
2014,04,27,16,22,257.10
2014,04,27,16,23,239.60
2014,04,27,16,24,693.00
2014,04,27,16,25,693.00
2014,04,27,16,26,684.80
2014,04,27,16,27,658.10
2014,04,27,16,28,661.00
2014,04,27,16,29,661.80
2014,04,27,16,30,646.30
2014,04,27,16,31,628.00
2014,04,27,16,32,343.40
2014,04,27,16,33,130.00
2014,04,27,16,34,135.00
2014,04,27,16,35,151.70
2014,04,27,16,36,181.70
2014,04,27,16,37,204.10
2014,04,27,16,38,195.10
2014,04,27,16,39,186.40
2014,04,27,16,40,191.00
2014,04,27,16,41,197.00
2014,04,27,16,42,195.60
2014,04,27,16,43,193.00
2014,04,27,16,44,197.00
2014,04,27,16,45,202.90
2014,04,27,16,46,212.30
2014,04,27,16,47,227.60
2014,04,27,16,48,248.60
2014,04,27,16,49,257.00
2014,04,27,16,50,257.00
2014,04,27,16,51,655.60
2014,04,27,16,52,722.00
2014,04,27,16,53,710.20
2014,04,27,16,54,462.00
2014,04,27,16,55,423.10
2014,04,27,16,56,185.20
2014,04,27,16,57,165.00
2014,04,27,16,58,155.00
2014,04,27,16,59,154.30
2014,04,27,17,00,152.10
2014,04,27,17,01,149.40
2014,04,27,17,02,146.80
2014,04,27,17,03,142.70
2014,04,27,17,04,134.60
2014,04,27,17,05,128.00
2014,04,27,17,06,122.10
2014,04,27,17,07,118.30
2014,04,27,17,08,114.20
2014,04,27,17,09,108.60